[[{"header":{"parameterUnit":"m.s-1","parameterCategory":1,"la1":30.2991,"la2":30.254,"lo1":-89.0895,"lo2":-89.0444,"dy":0.0017,"dx":0.0017,"nx":28,"ny":28,"refTime":"2024-08-19T21:00:00:Z","depth":0,"parameterNumber":2,"parameterNumberName":"U-component_of_WINDS"},"data":[0,0,0,0,0,0,0,0,0,0,0,0,0,0,0,0,0,0,0,0,0,0,0,0,0,0,0,0,0,0,0,0,0,0,0,0,0,0,0,0,0,0,0,0,0,0,0,0,0,0,0,0,0,0,0,0,0,0,0.0592,0.0593,0,0.0653,0.0653,0.0654,0.0708,0.0709,0.071,0.071,0.0773,0.0774,0.0775,0,0,0,0,0,0,0,0,0,0,0,0,0,0.0524,0.0525,0.0592,0.0593,0.0593,0.0653,0.0653,0.0654,0.0708,0.0709,0.071,0.0711,0.0772,0.0774,0.0775,0,0,0,0,0,0,0,0,0,0,0,0,0,0.0566,0.0525,0.0592,0.0628,0.0631,0.0652,0.0653,0.0654,0.0708,0.0709,0.071,0.0711,0.0772,0.0774,0.0775,0.0766,0,0,0.078,0.0781,0,0,0,0,0,0,0,0,0.0563,0.0568,0.0622,0.0625,0.0629,0.0674,0.0652,0.0692,0.0708,0.0679,0.071,0.0711,0.0739,0.0743,0.0753,0.0769,0.0771,0.078,0.0781,0.0782,0.0782,0,0,0,0,0,0,0,0.056,0.0566,0.0616,0.0622,0.0627,0.0641,0.0648,0.066,0.0703,0.0682,0.0686,0.0692,0.0741,0.0751,0.0755,0.0772,0.078,0.0782,0.0782,0.0783,0.0783,0.0782,0,0,0,0,0,0,0.0552,0.0563,0.0614,0.0618,0.0598,0.0641,0.0649,0.0659,0.0703,0.0711,0.0691,0.0694,0.0748,0.0753,0.0757,0.0748,0.0782,0.0783,0.0784,0.0784,0.0783,0.0782,0,0,0,0,0,0,0.055,0.0556,0.0612,0.0592,0.06,0.0641,0.0652,0.0659,0.0669,0.071,0.0718,0.0693,0.0749,0.0755,0.0763,0.0751,0.0784,0.0785,0.0785,0.0784,0.0782,0.073,0,0,0,0,0,0,0.0548,0.0555,0.0551,0.0591,0.0601,0.0616,0.0651,0.066,0.0672,0.0676,0.0714,0.0721,0.075,0.076,0.0765,0.0754,0.0787,0.0786,0.0785,0.0783,0.0733,0.0727,0.0722,0,0,0,0,0,0.0545,0.0534,0.0551,0.0557,0.0597,0.0615,0.0621,0.0654,0.067,0.0667,0.0694,0.072,0.0752,0.0761,0.0766,0.0755,0.0787,0.0785,0.0783,0.0736,0.0728,0.0722,0,0,0,0,0,0,0.0492,0.054,0.0559,0.0561,0.0584,0.0624,0.0621,0.0645,0.0664,0.0667,0.0708,0.0717,0.072,0.0739,0.0748,0.0749,0.0773,0.0772,0.0735,0.0729,0.0723,0.0718,0.0788,0,0,0,0,0,0.0481,0.0491,0.0533,0.0531,0.0541,0.0579,0.0588,0.0612,0.0637,0.0647,0.0674,0.0698,0.0714,0.0723,0.0739,0.0737,0.0745,0.0733,0.0727,0.0722,0.072,0.0719,0.0713,0.0775,0.0775,0.0775,0,0,0.0457,0.0485,0.0489,0.0521,0.0541,0.0551,0.0587,0.0596,0.0604,0.0649,0.0657,0.0679,0.0708,0.071,0.0713,0.0726,0.0705,0.0719,0.0715,0.0716,0.0716,0.071,0.0705,0.0773,0.0774,0.0774,0,0,0.0418,0.0441,0.0441,0.0461,0.0491,0.0517,0.0517,0.0554,0.057,0.0579,0.0613,0.0624,0.065,0.0668,0.0682,0.0651,0.0675,0.0656,0.0625,0.0624,0.0619,0.0615,0.0603,0.0598,0.0654,0.0654,0.0654,0,0.0385,0.0401,0.0438,0.0444,0.0457,0.0499,0.0499,0.0517,0.0551,0.0559,0.0574,0.0607,0.063,0.0637,0.0629,0.0639,0.064,0.065,0.0617,0.0614,0.061,0.0599,0.0594,0.0651,0.0651,0.0651,0.0652,0,0.0357,0.0368,0.0365,0.0396,0.0409,0.0412,0.045,0.0458,0.0481,0.0505,0.0515,0.0544,0.0566,0.0571,0.0593,0.0581,0.0588,0.061,0.0635,0.0601,0.0591,0.0587,0.0647,0.0648,0.0649,0.0649,0,0,0.0285,0.0337,0.0335,0.035,0.0387,0.0396,0.0402,0.0424,0.043,0.0453,0.0458,0.0479,0.0499,0.0514,0.054,0.0539,0.0511,0.0561,0.0562,0.0549,0.0498,0.0479,0.0474,0.0529,0.0528,0.0528,0.0495,0,0.0251,0.0262,0.0296,0.0297,0.0307,0.0348,0.0353,0.0376,0.0399,0.0411,0.0437,0.0451,0.0477,0.0486,0.0488,0.0514,0.0501,0.0518,0.0533,0.0533,0.0521,0.0469,0.0449,0.0417,0.0491,0.0491,0.049,0,0.0212,0.0231,0.0233,0.027,0.0275,0.0279,0.0301,0.0313,0.034,0.0357,0.0374,0.0403,0.0411,0.0436,0.0448,0.0458,0.0467,0.0481,0.0481,0.0481,0.0507,0.0466,0.0407,0.0401,0.0485,0.0485,0.0485,0,0.0156,0.0183,0.0188,0.0199,0.0243,0.0244,0.0262,0.0291,0.0302,0.0322,0.033,0.0351,0.0362,0.0378,0.0412,0.0428,0.0419,0.0447,0.0432,0.0431,0.0427,0.0426,0.0366,0.0436,0.0436,0.0436,0.0436,0,0.0112,0.0111,0.0163,0.0165,0.0165,0.0205,0.0204,0.0227,0.0252,0.0259,0.0297,0.0303,0.0349,0.036,0.0387,0.0392,0.0397,0.041,0.0417,0.0405,0.0403,0.041,0.0412,0.0435,0.0435,0.0436,0.0436,0,0.0049,0.0083,0.0091,0.0131,0.0142,0.014,0.0175,0.0179,0.0205,0.0214,0.0218,0.0259,0.0275,0.0311,0.0336,0.0354,0.0351,0.0365,0.0341,0.0345,0.0327,0.0327,0.0267,0.026,0.0337,0.0336,0.0335,0,0.0017,0.0017,0.0058,0.0066,0.0082,0.0094,0.0106,0.0146,0.0156,0.0188,0.0188,0.0207,0.0223,0.0246,0.0278,0.0298,0.0311,0.0289,0.0314,0.0302,0.0308,0.0306,0.0306,0.0282,0.0281,0.028,0.0279,0,-0.0043,-0.0025,-0.0011,0.001,0.0023,0.0042,0.0062,0.0066,0.0111,0.0121,0.0137,0.015,0.0177,0.0194,0.0219,0.0238,0.0265,0.0272,0.0269,0.0255,0.0241,0.0246,0.0323,0.0272,0.0273,0.0273,0.0274,0.0274,-0.0093,-0.0091,-0.0062,-0.0047,-0.0027,-0.0009,-0.0003,0.0024,0.0038,0.0062,0.0085,0.0098,0.0127,0.0163,0.018,0.0191,0.0206,0.0202,0.0201,0.0198,0.0192,0.0241,0.0197,0.0197,0.0197,0.0197,0.0197,0,-0.0153,-0.0132,-0.0118,-0.0091,-0.0079,-0.0052,-0.0028,-0.002,-0.0009,0.0016,0.0031,0.005,0.0068,0.0101,0.0122,0.0124,0.0137,0.0128,0.0127,0.013,0.018,0.0179,0.0117,0.0117,0.0117,0.0117,0.0117,0.0117,-0.0183,-0.018,-0.0159,-0.0145,-0.0123,-0.011,-0.0099,-0.0081,-0.0062,-0.0043,-0.0029,-0.0006,0.0021,0.0044,0.0062,0.0071,0.0076,0.0062,0.0075,0.012,0.0127,0.0134,0.0134,0.0063,0.0063,0.0025,0.0024,0.0024]},{"header":{"parameterUnit":"m.s-1","parameterCategory":1,"la1":30.2991,"la2":30.254,"lo1":-89.0895,"lo2":-89.0444,"dy":0.0017,"dx":0.0017,"nx":28,"ny":28,"refTime":"2024-08-19T21:00:00:Z","depth":0,"parameterNumber":3,"parameterNumberName":"V-component_of_WINDS"},"data":[0,0,0,0,0,0,0,0,0,0,0,0,0,0,0,0,0,0,0,0,0,0,0,0,0,0,0,0,0,0,0,0,0,0,0,0,0,0,0,0,0,0,0,0,0,0,0,0,0,0,0,0,0,0,0,0,0,0,-1.4425,-1.4425,0,-1.4431,-1.4432,-1.4432,-1.437,-1.4368,-1.4366,-1.4365,-1.4372,-1.4373,-1.4375,0,0,0,0,0,0,0,0,0,0,0,0,0,-1.4359,-1.4361,-1.4425,-1.4425,-1.4425,-1.4431,-1.4432,-1.4432,-1.437,-1.4368,-1.4366,-1.4364,-1.4371,-1.4373,-1.4375,0,0,0,0,0,0,0,0,0,0,0,0,0,-1.4379,-1.4361,-1.4425,-1.4395,-1.4393,-1.4431,-1.4432,-1.4432,-1.4371,-1.4368,-1.4365,-1.4363,-1.437,-1.4373,-1.4375,-1.4443,0,0,-1.4384,-1.4385,0,0,0,0,0,0,0,0,-1.4378,-1.4382,-1.44,-1.4397,-1.4395,-1.4397,-1.4411,-1.4435,-1.4371,-1.4379,-1.4365,-1.4362,-1.4382,-1.4384,-1.4391,-1.4443,-1.4444,-1.4384,-1.4385,-1.4387,-1.4387,0,0,0,0,0,0,0,-1.4377,-1.4381,-1.4427,-1.44,-1.4397,-1.4382,-1.4382,-1.4415,-1.4395,-1.4378,-1.4374,-1.4375,-1.438,-1.4388,-1.439,-1.4444,-1.4384,-1.4386,-1.4388,-1.4389,-1.4553,-1.4556,0,0,0,0,0,0,-1.4379,-1.438,-1.4427,-1.4428,-1.438,-1.4385,-1.4385,-1.4399,-1.4394,-1.4391,-1.4377,-1.4372,-1.4385,-1.4387,-1.439,-1.447,-1.4387,-1.4389,-1.4391,-1.455,-1.4553,-1.4556,0,0,0,0,0,0,-1.4378,-1.4384,-1.4427,-1.4403,-1.4407,-1.4389,-1.4405,-1.44,-1.4408,-1.4394,-1.439,-1.4389,-1.4383,-1.4386,-1.4431,-1.4469,-1.439,-1.4393,-1.4547,-1.4551,-1.4555,-1.4629,0,0,0,0,0,0,-1.4377,-1.4384,-1.441,-1.4404,-1.4409,-1.4468,-1.4407,-1.4402,-1.4413,-1.4406,-1.4404,-1.4401,-1.4381,-1.4427,-1.4433,-1.4471,-1.4395,-1.4543,-1.4549,-1.4554,-1.4623,-1.4635,-1.4646,0,0,0,0,0,-1.4374,-1.443,-1.4411,-1.4417,-1.444,-1.447,-1.4473,-1.4449,-1.4416,-1.4442,-1.4433,-1.4401,-1.4464,-1.4432,-1.4438,-1.4478,-1.4541,-1.4547,-1.4553,-1.4618,-1.4633,-1.4646,0,0,0,0,0,0,-1.4441,-1.4429,-1.4408,-1.4463,-1.4468,-1.4459,-1.4491,-1.4465,-1.4479,-1.4473,-1.4442,-1.4442,-1.4491,-1.4489,-1.4454,-1.4543,-1.4497,-1.4504,-1.4544,-1.4558,-1.4569,-1.4569,-1.4397,0,0,0,0,0,-1.4462,-1.4488,-1.4475,-1.4526,-1.4529,-1.451,-1.4522,-1.4503,-1.4507,-1.4509,-1.4502,-1.4507,-1.4528,-1.4542,-1.456,-1.4622,-1.4621,-1.4652,-1.4664,-1.4673,-1.4681,-1.4714,-1.4728,-1.4577,-1.4577,-1.4577,0,0,-1.4507,-1.4503,-1.4521,-1.4539,-1.454,-1.4567,-1.4512,-1.4543,-1.4562,-1.4513,-1.4555,-1.455,-1.4554,-1.4607,-1.463,-1.4606,-1.4722,-1.4681,-1.4689,-1.4691,-1.4722,-1.4736,-1.4749,-1.4581,-1.458,-1.458,0,0,-1.4601,-1.46,-1.4643,-1.4645,-1.4648,-1.4635,-1.4645,-1.464,-1.4636,-1.4677,-1.464,-1.4663,-1.4699,-1.4704,-1.471,-1.4806,-1.4778,-1.4813,-1.4872,-1.4905,-1.4917,-1.4927,-1.4963,-1.4976,-1.482,-1.482,-1.482,0,-1.4656,-1.4695,-1.4667,-1.4701,-1.471,-1.4667,-1.4709,-1.4713,-1.4722,-1.4729,-1.4702,-1.4747,-1.4746,-1.48,-1.4824,-1.483,-1.4841,-1.4814,-1.4917,-1.4928,-1.4937,-1.497,-1.4984,-1.4825,-1.4824,-1.4824,-1.4823,0,-1.4762,-1.479,-1.4824,-1.4834,-1.4846,-1.4884,-1.4863,-1.4879,-1.4859,-1.4849,-1.4891,-1.4889,-1.4906,-1.4917,-1.4897,-1.4969,-1.4954,-1.4923,-1.4875,-1.4956,-1.4987,-1.5,-1.4831,-1.4829,-1.4828,-1.4827,0,0,-1.49,-1.4894,-1.4907,-1.4912,-1.4911,-1.4932,-1.4968,-1.4985,-1.5,-1.5007,-1.5037,-1.5069,-1.504,-1.5048,-1.5028,-1.5057,-1.5134,-1.5022,-1.5021,-1.5044,-1.5213,-1.5238,-1.5253,-1.5114,-1.5117,-1.5119,-1.5213,0,-1.4993,-1.5055,-1.5031,-1.5094,-1.512,-1.5078,-1.5109,-1.5113,-1.5104,-1.5125,-1.5114,-1.5138,-1.5097,-1.5102,-1.5128,-1.5119,-1.5168,-1.5112,-1.5143,-1.5144,-1.5145,-1.5269,-1.5295,-1.5385,-1.5225,-1.5227,-1.5229,0,-1.511,-1.5123,-1.5189,-1.5185,-1.5194,-1.5223,-1.5237,-1.5257,-1.526,-1.5251,-1.526,-1.5234,-1.5269,-1.5221,-1.5269,-1.5231,-1.5242,-1.524,-1.5243,-1.5246,-1.5193,-1.5277,-1.5413,-1.5427,-1.5247,-1.5246,-1.5244,0,-1.5206,-1.5239,-1.5283,-1.5287,-1.5283,-1.5305,-1.5304,-1.5304,-1.5316,-1.5328,-1.5335,-1.5351,-1.536,-1.5373,-1.5352,-1.5318,-1.5403,-1.5353,-1.5398,-1.5399,-1.5419,-1.5418,-1.556,-1.5424,-1.5424,-1.5424,-1.5423,0,-1.5313,-1.5355,-1.5326,-1.5353,-1.5399,-1.5371,-1.5418,-1.5412,-1.5413,-1.5439,-1.5403,-1.5428,-1.5398,-1.542,-1.5404,-1.5447,-1.5451,-1.5445,-1.5441,-1.5449,-1.545,-1.5457,-1.5451,-1.5427,-1.5426,-1.5426,-1.5425,0,-1.5428,-1.541,-1.5455,-1.5448,-1.5447,-1.5481,-1.5475,-1.55,-1.5488,-1.5521,-1.5527,-1.5509,-1.5533,-1.5513,-1.5536,-1.5525,-1.5582,-1.5568,-1.5582,-1.5578,-1.5625,-1.5622,-1.5777,-1.5797,-1.5647,-1.5649,-1.565,0,-1.5499,-1.553,-1.5526,-1.5541,-1.5542,-1.5566,-1.5578,-1.5551,-1.5565,-1.5571,-1.5596,-1.5617,-1.5632,-1.5672,-1.5661,-1.5679,-1.5666,-1.5719,-1.5668,-1.5676,-1.5668,-1.5667,-1.5671,-1.573,-1.5732,-1.5733,-1.5734,0,-1.5626,-1.5615,-1.5634,-1.565,-1.5665,-1.5676,-1.5684,-1.5698,-1.5671,-1.5688,-1.5713,-1.5725,-1.5748,-1.577,-1.5784,-1.5783,-1.5755,-1.575,-1.5762,-1.5772,-1.5779,-1.5777,-1.5611,-1.5747,-1.5746,-1.5745,-1.5744,-1.5744,-1.5722,-1.5748,-1.575,-1.5772,-1.5775,-1.5783,-1.5807,-1.5798,-1.5818,-1.5835,-1.5818,-1.5848,-1.585,-1.5866,-1.5868,-1.5891,-1.5869,-1.5885,-1.589,-1.5895,-1.5902,-1.5774,-1.5893,-1.5893,-1.5892,-1.5892,-1.5892,0,-1.5848,-1.5847,-1.5867,-1.588,-1.5898,-1.5869,-1.5877,-1.5893,-1.592,-1.5924,-1.594,-1.5968,-1.5989,-1.5979,-1.5997,-1.6018,-1.6005,-1.6023,-1.6022,-1.6023,-1.592,-1.5909,-1.6033,-1.6033,-1.6033,-1.6033,-1.6033,-1.6033,-1.5916,-1.596,-1.595,-1.5995,-1.5993,-1.6022,-1.6029,-1.6036,-1.604,-1.6073,-1.609,-1.6083,-1.6082,-1.61,-1.6118,-1.6115,-1.6124,-1.6147,-1.6139,-1.6044,-1.603,-1.6017,-1.6006,-1.6149,-1.6149,-1.624,-1.6241,-1.6241]}]]